Time,TemperatureF,DewpointF,PressureIn,WindDirection,WindDirectionDegrees,WindSpeedMPH,WindSpeedGustMPH,Humidity,HourlyPrecipIn,Conditions,Clouds,dailyrainin,SoftwareType,DateUTC
2013-03-03 00:01:00,33.0,28.0,27.44,SE,144,0.0,5.0,81,0.00,,,0.00,,2013-03-03 07:01:00,
2013-03-03 00:11:00,33.0,28.0,27.44,SE,144,0.0,5.0,81,0.00,,,0.00,,2013-03-03 07:11:00,
2013-03-03 00:21:00,33.0,28.0,27.43,SE,144,0.0,2.0,82,0.00,,,0.00,,2013-03-03 07:21:00,
2013-03-03 00:31:00,33.0,28.0,27.43,SE,144,0.0,0.0,83,0.00,,,0.00,,2013-03-03 07:31:00,
2013-03-03 00:42:00,33.0,28.0,27.43,SE,144,0.0,0.0,83,0.00,,,0.00,,2013-03-03 07:42:00,
2013-03-03 00:52:00,33.0,28.0,27.42,SE,144,0.0,0.0,83,0.00,,,0.00,,2013-03-03 07:52:00,
2013-03-03 01:01:00,33.0,28.0,27.42,SE,144,0.0,5.0,82,0.00,,,0.00,,2013-03-03 08:01:00,
2013-03-03 01:11:00,33.0,28.0,27.42,SE,144,0.0,5.0,82,0.00,,,0.00,,2013-03-03 08:11:00,
2013-03-03 01:21:00,33.0,28.0,27.42,SE,144,0.0,5.0,82,0.00,,,0.00,,2013-03-03 08:21:00,
2013-03-03 01:31:00,32.0,28.0,27.40,SE,144,0.0,0.0,84,0.00,,,0.00,,2013-03-03 08:31:00,
2013-03-03 01:41:00,32.0,28.0,27.40,SE,144,0.0,0.0,84,0.00,,,0.00,,2013-03-03 08:41:00,
2013-03-03 01:54:00,32.0,28.0,27.39,SE,130,0.0,4.0,84,0.00,,,0.00,,2013-03-03 08:54:00,
2013-03-03 02:01:00,32.0,29.0,27.39,SE,130,1.0,4.0,87,0.00,,,0.00,,2013-03-03 09:01:00,
2013-03-03 02:11:00,32.0,29.0,27.39,SE,130,1.0,4.0,87,0.00,,,0.00,,2013-03-03 09:11:00,
2013-03-03 02:21:00,32.0,29.0,27.38,SE,130,1.0,4.0,87,0.00,,,0.00,,2013-03-03 09:21:00,
2013-03-03 02:32:00,32.0,28.0,27.38,ENE,61,2.0,5.0,86,0.00,,,0.00,,2013-03-03 09:32:00,
2013-03-03 02:41:00,32.0,28.0,27.38,ENE,61,2.0,5.0,86,0.00,,,0.00,,2013-03-03 09:41:00,
2013-03-03 02:52:00,32.0,28.0,27.37,ENE,61,0.0,4.0,85,0.00,,,0.00,,2013-03-03 09:52:00,
2013-03-03 03:01:00,31.0,28.0,27.36,ENE,61,0.0,2.0,87,0.00,,,0.00,,2013-03-03 10:01:00,
2013-03-03 03:11:00,31.0,28.0,27.36,ENE,61,0.0,2.0,87,0.00,,,0.00,,2013-03-03 10:11:00,
2013-03-03 03:21:00,32.0,29.0,27.35,North,9,4.0,6.0,88,0.00,,,0.00,,2013-03-03 10:21:00,
2013-03-03 03:32:00,33.0,29.0,27.36,SSW,194,5.0,12.0,86,0.00,,,0.00,,2013-03-03 10:32:00,
2013-03-03 03:42:00,33.0,29.0,27.36,SSW,194,5.0,12.0,86,0.00,,,0.00,,2013-03-03 10:42:00,
2013-03-03 03:52:00,33.0,29.0,27.35,South,190,0.0,0.0,86,0.00,,,0.00,,2013-03-03 10:52:00,
2013-03-03 04:01:00,32.0,28.0,27.34,South,190,0.0,0.0,86,0.00,,,0.00,,2013-03-03 11:01:00,
2013-03-03 04:11:00,32.0,28.0,27.34,South,190,0.0,0.0,86,0.00,,,0.00,,2013-03-03 11:11:00,
2013-03-03 04:21:00,33.0,29.0,27.33,South,190,0.0,0.0,86,0.00,,,0.00,,2013-03-03 11:21:00,
2013-03-03 04:32:00,33.0,29.0,27.33,South,190,0.0,0.0,86,0.00,,,0.00,,2013-03-03 11:32:00,
2013-03-03 04:42:00,33.0,29.0,27.33,South,190,0.0,0.0,86,0.00,,,0.00,,2013-03-03 11:42:00,
2013-03-03 04:52:00,33.0,29.0,27.33,South,190,0.0,0.0,85,0.00,,,0.00,,2013-03-03 11:52:00,
2013-03-03 05:01:00,33.0,29.0,27.33,South,190,0.0,0.0,85,0.00,,,0.00,,2013-03-03 12:01:00,
2013-03-03 05:11:00,33.0,29.0,27.33,South,190,0.0,0.0,85,0.00,,,0.00,,2013-03-03 12:11:00,
2013-03-03 05:21:00,33.0,29.0,27.33,South,190,0.0,0.0,86,0.00,,,0.00,,2013-03-03 12:21:00,
2013-03-03 05:32:00,33.0,29.0,27.33,South,190,0.0,0.0,86,0.00,,,0.00,,2013-03-03 12:32:00,
2013-03-03 05:42:00,33.0,29.0,27.33,South,190,0.0,0.0,86,0.00,,,0.00,,2013-03-03 12:42:00,
2013-03-03 05:53:00,32.0,28.0,27.33,South,190,0.0,0.0,86,0.00,,,0.00,,2013-03-03 12:53:00,
2013-03-03 06:01:00,32.0,29.0,27.32,South,190,0.0,0.0,87,0.00,,,0.00,,2013-03-03 13:01:00,
2013-03-03 06:11:00,32.0,29.0,27.32,South,190,0.0,0.0,87,0.00,,,0.00,,2013-03-03 13:11:00,
2013-03-03 06:22:00,32.0,29.0,27.32,South,190,0.0,0.0,87,0.00,,,0.00,,2013-03-03 13:22:00,
2013-03-03 06:32:00,33.0,30.0,27.32,South,190,0.0,0.0,87,0.00,,,0.00,,2013-03-03 13:32:00,
2013-03-03 06:42:00,33.0,30.0,27.32,South,190,0.0,0.0,87,0.00,,,0.00,,2013-03-03 13:42:00,
2013-03-03 06:52:00,34.0,30.0,27.31,South,190,0.0,2.0,86,0.00,,,0.00,,2013-03-03 13:52:00,
2013-03-03 07:02:00,34.0,30.0,27.32,South,190,0.0,4.0,85,0.00,,,0.00,,2013-03-03 14:02:00,
2013-03-03 07:11:00,34.0,30.0,27.32,South,190,0.0,4.0,85,0.00,,,0.00,,2013-03-03 14:11:00,
2013-03-03 07:21:00,34.0,30.0,27.31,WNW,282,4.0,8.0,85,0.00,,,0.00,,2013-03-03 14:21:00,
2013-03-03 07:32:00,34.0,30.0,27.31,WNW,282,0.0,2.0,85,0.00,,,0.00,,2013-03-03 14:32:00,
2013-03-03 07:42:00,34.0,30.0,27.31,WNW,282,0.0,2.0,85,0.00,,,0.00,,2013-03-03 14:42:00,
2013-03-03 07:52:00,34.0,30.0,27.31,WNW,282,0.0,0.0,85,0.00,,,0.00,,2013-03-03 14:52:00,
2013-03-03 08:01:00,35.0,31.0,27.30,West,277,0.0,1.0,86,0.00,,,0.00,,2013-03-03 15:01:00,
2013-03-03 08:11:00,35.0,31.0,27.30,West,277,0.0,1.0,86,0.00,,,0.00,,2013-03-03 15:11:00,
2013-03-03 08:22:00,36.0,32.0,27.29,South,170,1.0,3.0,85,0.00,,,0.00,,2013-03-03 15:22:00,
2013-03-03 08:32:00,38.0,33.0,27.29,South,178,1.0,5.0,82,0.00,,,0.00,,2013-03-03 15:32:00,
2013-03-03 08:42:00,38.0,33.0,27.29,South,178,1.0,5.0,82,0.00,,,0.00,,2013-03-03 15:42:00,
2013-03-03 08:52:00,39.0,33.0,27.29,South,173,0.0,3.0,80,0.00,,,0.00,,2013-03-03 15:52:00,
2013-03-03 09:01:00,40.0,33.0,27.28,SSE,148,4.0,8.0,77,0.00,,,0.00,,2013-03-03 16:01:00,
2013-03-03 09:12:00,40.0,33.0,27.28,SSE,148,4.0,8.0,77,0.00,,,0.00,,2013-03-03 16:12:00,
2013-03-03 09:21:00,41.0,34.0,27.28,SSE,163,4.0,7.0,75,0.00,,,0.00,,2013-03-03 16:21:00,
2013-03-03 09:32:00,42.0,34.0,27.28,South,173,4.0,8.0,73,0.00,,,0.00,,2013-03-03 16:32:00,
2013-03-03 09:42:00,42.0,34.0,27.28,South,173,4.0,8.0,73,0.00,,,0.00,,2013-03-03 16:42:00,
2013-03-03 09:52:00,42.0,34.0,27.27,South,181,5.0,8.0,73,0.00,,,0.00,,2013-03-03 16:52:00,
2013-03-03 10:01:00,43.0,35.0,27.26,SSE,166,4.0,7.0,73,0.00,,,0.00,,2013-03-03 17:01:00,
2013-03-03 10:11:00,44.0,35.0,27.25,South,178,7.0,9.0,70,0.00,,,0.00,,2013-03-03 17:11:00,
2013-03-03 10:22:00,44.0,35.0,27.25,South,178,7.0,9.0,70,0.00,,,0.00,,2013-03-03 17:22:00,
2013-03-03 10:32:00,45.0,35.0,27.24,South,188,7.0,9.0,69,0.00,,,0.00,,2013-03-03 17:32:00,
2013-03-03 10:42:00,45.0,35.0,27.24,South,188,7.0,9.0,69,0.00,,,0.00,,2013-03-03 17:42:00,
2013-03-03 10:52:00,46.0,36.0,27.24,SSW,196,7.0,9.0,67,0.00,,,0.00,,2013-03-03 17:52:00,
2013-03-03 11:01:00,47.0,37.0,27.23,South,182,7.0,9.0,68,0.00,,,0.00,,2013-03-03 18:01:00,
2013-03-03 11:11:00,47.0,37.0,27.23,South,182,7.0,9.0,68,0.00,,,0.00,,2013-03-03 18:11:00,
2013-03-03 11:21:00,49.0,39.0,27.21,South,180,9.0,13.0,67,0.00,,,0.00,,2013-03-03 18:21:00,
2013-03-03 11:32:00,51.0,39.0,27.21,South,189,10.0,15.0,63,0.00,,,0.00,,2013-03-03 18:32:00,
2013-03-03 11:42:00,51.0,39.0,27.21,South,189,10.0,15.0,63,0.00,,,0.00,,2013-03-03 18:42:00,
2013-03-03 11:52:00,51.0,39.0,27.21,South,189,10.0,15.0,63,0.00,,,0.00,,2013-03-03 18:52:00,
2013-03-03 12:01:00,52.0,38.0,27.20,SSE,165,12.0,20.0,58,0.00,,,0.00,,2013-03-03 19:01:00,
2013-03-03 12:11:00,52.0,38.0,27.20,SSE,165,12.0,20.0,58,0.00,,,0.00,,2013-03-03 19:11:00,
2013-03-03 12:22:00,53.0,39.0,27.19,SSE,163,10.0,15.0,58,0.00,,,0.00,,2013-03-03 19:22:00,
2013-03-03 12:32:00,53.0,38.0,27.19,South,177,15.0,20.0,56,0.00,,,0.00,,2013-03-03 19:32:00,
2013-03-03 12:42:00,53.0,38.0,27.19,South,177,15.0,20.0,56,0.00,,,0.00,,2013-03-03 19:42:00,
2013-03-03 12:52:00,54.0,38.0,27.18,SSW,192,11.0,16.0,54,0.00,,,0.00,,2013-03-03 19:52:00,
2013-03-03 13:01:00,53.0,36.0,27.18,SSW,200,11.0,15.0,53,0.00,,,0.00,,2013-03-03 20:01:00,
2013-03-03 13:11:00,53.0,36.0,27.18,SSW,200,11.0,15.0,53,0.00,,,0.00,,2013-03-03 20:11:00,
2013-03-03 13:21:00,53.0,36.0,27.17,SSW,209,10.0,13.0,53,0.00,,,0.00,,2013-03-03 20:21:00,
2013-03-03 13:32:00,54.0,37.0,27.16,SW,219,8.0,12.0,52,0.00,,,0.00,,2013-03-03 20:32:00,
2013-03-03 13:42:00,54.0,37.0,27.16,SW,219,8.0,12.0,52,0.00,,,0.00,,2013-03-03 20:42:00,
2013-03-03 13:53:00,55.0,37.0,27.15,South,184,10.0,13.0,50,0.00,,,0.00,,2013-03-03 20:53:00,
2013-03-03 14:01:00,55.0,36.0,27.14,SSW,209,10.0,15.0,48,0.00,,,0.00,,2013-03-03 21:01:00,
2013-03-03 14:11:00,55.0,36.0,27.14,SSW,209,10.0,15.0,48,0.00,,,0.00,,2013-03-03 21:11:00,
2013-03-03 14:22:00,56.0,36.0,27.13,SSW,198,20.0,24.0,46,0.00,,,0.00,,2013-03-03 21:22:00,
2013-03-03 14:32:00,56.0,37.0,27.13,SSW,202,7.0,13.0,48,0.00,,,0.00,,2013-03-03 21:32:00,
2013-03-03 14:42:00,56.0,37.0,27.13,SSW,202,7.0,13.0,48,0.00,,,0.00,,2013-03-03 21:42:00,
2013-03-03 14:52:00,56.0,36.0,27.13,South,180,13.0,18.0,47,0.00,,,0.00,,2013-03-03 21:52:00,
2013-03-03 15:01:00,54.0,37.0,27.13,SSW,196,22.0,27.0,52,0.00,,,0.00,,2013-03-03 22:01:00,
2013-03-03 15:11:00,54.0,37.0,27.13,SSW,196,22.0,27.0,52,0.00,,,0.00,,2013-03-03 22:11:00,
2013-03-03 15:22:00,53.0,37.0,27.14,SSW,194,16.0,21.0,55,0.00,,,0.00,,2013-03-03 22:22:00,
2013-03-03 15:32:00,52.0,38.0,27.14,SSW,192,16.0,21.0,58,0.00,,,0.00,,2013-03-03 22:32:00,
2013-03-03 15:42:00,52.0,38.0,27.14,SSW,192,16.0,21.0,58,0.00,,,0.00,,2013-03-03 22:42:00,
2013-03-03 15:52:00,51.0,38.0,27.13,South,184,11.0,18.0,60,0.00,,,0.00,,2013-03-03 22:52:00,
2013-03-03 16:01:00,51.0,37.0,27.14,SW,217,5.0,12.0,59,0.00,,,0.00,,2013-03-03 23:01:00,
2013-03-03 16:11:00,51.0,37.0,27.14,SW,217,5.0,12.0,59,0.00,,,0.00,,2013-03-03 23:11:00,
2013-03-03 16:21:00,50.0,38.0,27.14,West,279,11.0,18.0,63,0.00,,,0.00,,2013-03-03 23:21:00,
2013-03-03 16:31:00,48.0,38.0,27.16,WNW,283,23.0,35.0,69,0.00,,,0.00,,2013-03-03 23:31:00,
2013-03-03 16:42:00,48.0,38.0,27.16,WNW,283,23.0,35.0,69,0.00,,,0.00,,2013-03-03 23:42:00,
2013-03-03 16:52:00,39.0,33.0,27.19,West,277,21.0,43.0,80,0.00,,,0.00,,2013-03-03 23:52:00,
2013-03-03 17:01:00,38.0,33.0,27.19,West,270,22.0,33.0,82,0.00,,,0.00,,2013-03-04 00:01:00,
2013-03-03 17:11:00,38.0,33.0,27.19,West,270,22.0,33.0,82,0.00,,,0.00,,2013-03-04 00:11:00,
2013-03-03 17:21:00,37.0,32.0,27.19,WNW,294,20.0,29.0,82,0.00,,,0.00,,2013-03-04 00:21:00,
2013-03-03 17:32:00,37.0,32.0,27.21,West,275,17.0,30.0,81,0.00,,,0.00,,2013-03-04 00:32:00,
2013-03-03 17:42:00,37.0,32.0,27.21,West,275,17.0,30.0,81,0.00,,,0.00,,2013-03-04 00:42:00,
2013-03-03 17:52:00,37.0,32.0,27.23,WSW,244,14.0,29.0,81,0.00,,,0.00,,2013-03-04 00:52:00,
2013-03-03 18:01:00,35.0,31.0,27.23,WNW,284,21.0,31.0,85,0.00,,,0.00,,2013-03-04 01:01:00,
2013-03-03 18:11:00,35.0,31.0,27.23,WNW,284,21.0,31.0,85,0.00,,,0.00,,2013-03-04 01:11:00,
2013-03-03 18:21:00,34.0,31.0,27.24,WNW,290,14.0,24.0,88,0.01,,,0.01,,2013-03-04 01:21:00,
2013-03-03 18:32:00,34.0,31.0,27.26,WNW,299,13.0,22.0,90,0.02,,,0.02,,2013-03-04 01:32:00,
2013-03-03 18:42:00,34.0,31.0,27.26,WNW,299,13.0,22.0,90,0.02,,,0.02,,2013-03-04 01:42:00,
2013-03-03 18:52:00,35.0,32.0,27.28,WNW,289,8.0,21.0,89,0.02,,,0.02,,2013-03-04 01:52:00,
2013-03-03 19:01:00,34.0,31.0,27.29,SW,234,11.0,15.0,89,0.02,,,0.02,,2013-03-04 02:01:00,
2013-03-03 19:11:00,34.0,31.0,27.29,SW,234,11.0,15.0,89,0.02,,,0.02,,2013-03-04 02:11:00,
2013-03-03 19:22:00,34.0,31.0,27.30,West,267,5.0,14.0,90,0.02,,,0.03,,2013-03-04 02:22:00,
2013-03-03 19:32:00,33.0,31.0,27.30,WSW,252,3.0,13.0,91,0.02,,,0.04,,2013-03-04 02:32:00,
2013-03-03 19:42:00,33.0,31.0,27.30,WSW,252,3.0,13.0,91,0.02,,,0.04,,2013-03-04 02:42:00,
2013-03-03 19:52:00,33.0,31.0,27.31,SW,217,7.0,9.0,91,0.02,,,0.04,,2013-03-04 02:52:00,
2013-03-03 20:01:00,33.0,31.0,27.31,SSW,194,7.0,10.0,91,0.02,,,0.04,,2013-03-04 03:01:00,
2013-03-03 20:11:00,33.0,31.0,27.31,SSW,194,7.0,10.0,91,0.02,,,0.04,,2013-03-04 03:11:00,
2013-03-03 20:21:00,32.0,30.0,27.32,SSW,204,10.0,13.0,92,0.02,,,0.05,,2013-03-04 03:21:00,
2013-03-03 20:32:00,32.0,30.0,27.32,SSW,209,8.0,12.0,93,0.01,,,0.05,,2013-03-04 03:32:00,
2013-03-03 20:42:00,33.0,31.0,27.32,SW,220,8.0,14.0,93,0.01,,,0.05,,2013-03-04 03:42:00,
2013-03-03 20:52:00,33.0,31.0,27.32,SW,220,8.0,14.0,93,0.01,,,0.05,,2013-03-04 03:52:00,
2013-03-03 21:01:00,32.0,30.0,27.31,SSW,192,8.0,11.0,92,0.01,,,0.05,,2013-03-04 04:01:00,
2013-03-03 21:11:00,32.0,30.0,27.31,SSW,192,8.0,11.0,92,0.01,,,0.05,,2013-03-04 04:11:00,
2013-03-03 21:22:00,32.0,30.0,27.31,SSW,192,8.0,11.0,92,0.01,,,0.05,,2013-03-04 04:22:00,
2013-03-03 21:32:00,33.0,31.0,27.32,SW,225,11.0,14.0,92,0.00,,,0.05,,2013-03-04 04:32:00,
2013-03-03 21:42:00,33.0,31.0,27.32,SW,225,11.0,14.0,92,0.00,,,0.05,,2013-03-04 04:42:00,
2013-03-03 21:52:00,33.0,31.0,27.32,SSW,196,10.0,15.0,91,0.00,,,0.05,,2013-03-04 04:52:00,
2013-03-03 22:01:00,33.0,30.0,27.32,SW,218,10.0,15.0,90,0.01,,,0.06,,2013-03-04 05:01:00,
2013-03-03 22:11:00,33.0,30.0,27.32,SW,218,10.0,15.0,90,0.01,,,0.06,,2013-03-04 05:11:00,
2013-03-03 22:22:00,33.0,30.0,27.32,SSW,202,14.0,18.0,90,0.01,,,0.06,,2013-03-04 05:22:00,
2013-03-03 22:31:00,33.0,30.0,27.31,SSW,207,11.0,18.0,89,0.01,,,0.06,,2013-03-04 05:31:00,
2013-03-03 22:42:00,33.0,30.0,27.31,SSW,207,11.0,18.0,89,0.01,,,0.06,,2013-03-04 05:42:00,
2013-03-03 22:52:00,33.0,30.0,27.32,SSW,202,14.0,20.0,87,0.01,,,0.06,,2013-03-04 05:52:00,
2013-03-03 23:01:00,33.0,28.0,27.32,SW,217,13.0,20.0,83,0.00,,,0.06,,2013-03-04 06:01:00,
2013-03-03 23:11:00,33.0,28.0,27.32,SW,217,13.0,20.0,83,0.00,,,0.06,,2013-03-04 06:11:00,
2013-03-03 23:21:00,33.0,28.0,27.32,SW,228,13.0,25.0,82,0.00,,,0.06,,2013-03-04 06:21:00,
2013-03-03 23:32:00,32.0,26.0,27.32,SW,236,12.0,19.0,77,0.00,,,0.06,,2013-03-04 06:32:00,
2013-03-03 23:42:00,32.0,26.0,27.32,SW,236,12.0,19.0,77,0.00,,,0.06,,2013-03-04 06:42:00,
2013-03-03 23:52:00,31.0,23.0,27.33,West,264,11.0,23.0,71,0.00,,,0.06,,2013-03-04 06:52:00,